Hourly Data Report for June 18, 2021

FISHER BRANCH (AUT)
MANITOBA
Current Station Operator: ECCC - MSC

51°05'00.100" N
97°33'16.200" W
253.00 m
50309J6
71442
WSZ

Download Data

Hourly Data (June 2021)
Hourly Data Report for June 18, 2021
TIME
LST
Temp Definition
°C
Dew Point Definition
°C
Rel Hum Definition
%
Precip. Amount Definition
mm

Wind Dir Definition
10's deg

Wind Spd Definition
km/h
Visibility Definition
km
Stn Press Definition
kPa
Hmdx Definition


Wind Chill Definition


Weather Definition


00:00 14.9 6.6 58 0.0 27 7   97.58     LegendNANA
01:00 14.0 6.9 62 0.0 29 14   97.56     LegendNANA
02:00 14.1 7.4 64 0.0 28 13   97.57     LegendNANA
03:00 11.6 9.3 86 0.0 34 11   97.66     LegendNANA
04:00 10.2 8.0 86 0.0 33 12   97.71     LegendNANA
05:00 10.0 7.2 82 0.0 32 13   97.74     LegendNANA
06:00 10.5 7.4 81 0.0 32 15   97.83     LegendNANA
07:00 11.0 7.6 79 0.0 32 20   97.88     LegendNANA
08:00 10.8 7.5 80 0.0 32 24   97.91     LegendNANA
09:00 10.8 7.5 80 0.0 32 19   97.97     LegendNANA
10:00 11.1 7.9 81 0.0 32 17   98.00     LegendNANA
11:00 11.9 8.4 79 0.0 32 17   98.04     LegendNANA
12:00 11.7 8.4 80 0.0 33 18   98.11     LegendNANA
13:00 12.1 8.2 77 0.0 33 16   98.14     LegendNANA
14:00 13.3 8.5 73 0.0 32 15   98.16     LegendNANA
15:00 15.5 8.4 62 0.0 34 15   98.17     LegendNANA
16:00 17.4 6.1 47 0.0 34 20   98.14     LegendNANA
17:00 18.0 6.9 48 0.0 36 17   98.15     LegendNANA
18:00 17.9 7.2 49 0.0 1 11   98.16     LegendNANA
19:00 17.5 5.8 46 0.0 34 14   98.19     LegendNANA
20:00 15.4 6.0 53 0.0 34 8   98.20     LegendNANA
21:00 10.7 6.4 75 0.0 5 4   98.19     LegendNANA
22:00 9.2 6.8 85 0.0   0   98.22     LegendNANA
23:00 8.7 7.0 89 0.0 23 3   98.24     LegendNANA

Notes on Data Quality.

Legend

  • E = Estimated
  • M = Missing
  • NA = Not Available*
  • [empty] = Indicates an unobserved value
Date modified: